Hourly Weather Canberra

Today, 21 September, Monday

Time Temperature Precipitation Wind Pressure Humidity
00:00 +10°C° 0 mm 2 mps 705 mmHg 97%
01:00 +10°C° 0 mm 2 mps 705 mmHg 97%
02:00 +11°C° 0 mm 1 mps 705 mmHg 96%
03:00 +10°C° 0 mm 1 mps 704 mmHg 96%
04:00 +10°C° 0 mm 1 mps 704 mmHg 96%
05:00 +11°C° 0 mm 1 mps 704 mmHg 95%
06:00 +11°C° 0 mm 1 mps 704 mmHg 93%
07:00 +12°C° 0 mm 1 mps 704 mmHg 92%
08:00 +15°C° 0 mm 2 mps 704 mmHg 84%
09:00 +17°C° 0 mm 3 mps 704 mmHg 76%
10:00 +20°C° 0 mm 4 mps 704 mmHg 68%
11:00 +21°C° 0 mm 5 mps 704 mmHg 65%
12:00 +22°C° 0 mm 5 mps 704 mmHg 61%
13:00 +23°C° 0 mm 6 mps 704 mmHg 58%
14:00 +22°C° 0.4 mm 6 mps 703 mmHg 65%
15:00 +21°C° 0.4 mm 6 mps 703 mmHg 72%
16:00 +20°C° 0.4 mm 5 mps 702 mmHg 79%
17:00 +17°C° 1.2 mm 5 mps 702 mmHg 84%
18:00 +17°C° 1.2 mm 4 mps 702 mmHg 89%
19:00 +14°C° 1.2 mm 4 mps 702 mmHg 93%
20:00 +14°C° 0.2 mm 3 mps 703 mmHg 95%
21:00 +13°C° 0.2 mm 3 mps 703 mmHg 96%
22:00 +13°C° 0.2 mm 3 mps 703 mmHg 98%
23:00 +12°C° 0.1 mm 3 mps 703 mmHg 97%

Tomorrow, 22 September, Tuesday

Time Temperature Precipitation Wind Pressure Humidity
00:00 +12°C° 0.1 mm 3 mps 703 mmHg 96%
01:00 +12°C° 0.1 mm 3 mps 703 mmHg 95%
02:00 +10°C° 0 mm 2 mps 703 mmHg 92%
03:00 +9°C° 0 mm 2 mps 703 mmHg 89%
04:00 +7°C° 0 mm 2 mps 703 mmHg 87%
05:00 +7°C° 0 mm 2 mps 704 mmHg 85%
06:00 +7°C° 0 mm 2 mps 704 mmHg 84%
07:00 +8°C° 0 mm 2 mps 704 mmHg 83%
08:00 +10°C° 0 mm 3 mps 705 mmHg 73%
09:00 +12°C° 0 mm 5 mps 705 mmHg 64%
10:00 +14°C° 0 mm 6 mps 705 mmHg 54%
11:00 +14°C° 0 mm 7 mps 705 mmHg 55%
12:00 +14°C° 0 mm 7 mps 704 mmHg 57%
13:00 +15°C° 0 mm 8 mps 704 mmHg 58%
14:00 +13°C° 0.1 mm 8 mps 704 mmHg 62%
15:00 +13°C° 0.1 mm 8 mps 704 mmHg 66%
16:00 +12°C° 0.1 mm 7 mps 704 mmHg 70%
17:00 +10°C° 0.1 mm 6 mps 704 mmHg 74%
18:00 +9°C° 0.1 mm 5 mps 705 mmHg 78%
19:00 +8°C° 0.1 mm 3 mps 705 mmHg 82%
20:00 +7°C° 0 mm 4 mps 706 mmHg 82%
21:00 +7°C° 0 mm 4 mps 706 mmHg 82%
22:00 +7°C° 0 mm 4 mps 706 mmHg 81%
23:00 +6°C° 0 mm 4 mps 706 mmHg 82%

Day after tomorrow, 23 September, Wednesday

Time Temperature Precipitation Wind Pressure Humidity
00:00 +6°C° 0 mm 5 mps 706 mmHg 82%
01:00 +6°C° 0 mm 5 mps 706 mmHg 82%
02:00 +6°C° 0 mm 5 mps 706 mmHg 83%
03:00 +6°C° 0 mm 5 mps 706 mmHg 83%
04:00 +6°C° 0 mm 5 mps 706 mmHg 84%
05:00 +6°C° 0 mm 5 mps 706 mmHg 84%
06:00 +6°C° 0 mm 5 mps 706 mmHg 83%
07:00 +6°C° 0 mm 5 mps 707 mmHg 83%
08:00 +8°C° 0 mm 6 mps 707 mmHg 76%
09:00 +9°C° 0 mm 7 mps 707 mmHg 69%
10:00 +11°C° 0 mm 8 mps 707 mmHg 63%
11:00 +11°C° 0 mm 8 mps 706 mmHg 60%
12:00 +12°C° 0 mm 8 mps 706 mmHg 58%
13:00 +12°C° 0 mm 7 mps 706 mmHg 56%
14:00 +11°C° 0.1 mm 7 mps 706 mmHg 62%
15:00 +10°C° 0.1 mm 6 mps 705 mmHg 67%
16:00 +9°C° 0.1 mm 6 mps 705 mmHg 73%
17:00 +8°C° 0.1 mm 5 mps 706 mmHg 78%
18:00 +7°C° 0.1 mm 4 mps 706 mmHg 82%
19:00 +6°C° 0.1 mm 4 mps 707 mmHg 87%
20:00 +6°C° 0 mm 4 mps 707 mmHg 88%
21:00 +5°C° 0 mm 3 mps 707 mmHg 90%
22:00 +4°C° 0 mm 3 mps 707 mmHg 91%
23:00 +4°C° 0 mm 3 mps 707 mmHg 92%

24 September, Thursday

Time Temperature Precipitation Wind Pressure Humidity
00:00 +4°C° 0 mm 3 mps 707 mmHg 93%
01:00 +3°C° 0 mm 3 mps 706 mmHg 93%
02:00 +3°C° 0 mm 3 mps 706 mmHg 93%
03:00 +3°C° 0 mm 3 mps 706 mmHg 93%
04:00 +3°C° 0 mm 4 mps 706 mmHg 93%
05:00 +3°C° 0 mm 4 mps 707 mmHg 89%
06:00 +3°C° 0 mm 4 mps 707 mmHg 85%
07:00 +3°C° 0 mm 4 mps 708 mmHg 82%
08:00 +5°C° 0 mm 4 mps 708 mmHg 71%
09:00 +7°C° 0 mm 4 mps 708 mmHg 61%
10:00 +8°C° 0 mm 4 mps 708 mmHg 51%
11:00 +9°C° 0 mm 5 mps 708 mmHg 50%
12:00 +10°C° 0 mm 5 mps 708 mmHg 48%
13:00 +12°C° 0 mm 5 mps 707 mmHg 46%
14:00 +10°C° 0 mm 6 mps 707 mmHg 50%
15:00 +10°C° 0 mm 6 mps 707 mmHg 53%
16:00 +9°C° 0 mm 6 mps 707 mmHg 57%
17:00 +7°C° 0 mm 5 mps 707 mmHg 64%
18:00 +5°C° 0 mm 4 mps 707 mmHg 72%
19:00 +3°C° 0 mm 4 mps 707 mmHg 79%
20:00 +3°C° 0 mm 3 mps 707 mmHg 81%
21:00 +3°C° 0 mm 2 mps 707 mmHg 83%
22:00 +3°C° 0 mm 1 mps 707 mmHg 85%
23:00 +3°C° 0 mm 1 mps 707 mmHg 87%

25 September, Friday

Time Temperature Precipitation Wind Pressure Humidity
00:00 +2°C° 0 mm 1 mps 706 mmHg 88%
01:00 +2°C° 0 mm 1 mps 706 mmHg 90%
02:00 +2°C° 0 mm 1 mps 705 mmHg 91%
03:00 +1°C° 0 mm 1 mps 705 mmHg 93%
04:00 +1°C° 0 mm 1 mps 704 mmHg 94%
05:00 +2°C° 0 mm 1 mps 704 mmHg 91%
06:00 +3°C° 0 mm 1 mps 704 mmHg 87%
07:00 +4°C° 0 mm 1 mps 704 mmHg 83%
08:00 +5°C° 0 mm 3 mps 703 mmHg 76%
09:00 +7°C° 0 mm 4 mps 703 mmHg 70%
10:00 +10°C° 0 mm 6 mps 702 mmHg 63%
11:00 +10°C° 0.3 mm 7 mps 701 mmHg 65%
12:00 +11°C° 0.3 mm 8 mps 700 mmHg 67%
13:00 +11°C° 0.3 mm 8 mps 699 mmHg 69%
14:00 +9°C° 2.2 mm 8 mps 698 mmHg 77%
15:00 +6°C° 2.2 mm 7 mps 698 mmHg 86%
16:00 +5°C° 2.2 mm 7 mps 697 mmHg 94%
17:00 +4°C° 0.9 mm 6 mps 697 mmHg 95%
18:00 +3°C° 0.9 mm 5 mps 698 mmHg 96%
19:00 +3°C° 0.9 mm 4 mps 698 mmHg 97%
20:00 +3°C° 0.3 mm 4 mps 698 mmHg 96%
21:00 +3°C° 0.3 mm 4 mps 698 mmHg 96%
22:00 +3°C° 0.3 mm 4 mps 698 mmHg 95%
23:00 +1°C° 0.1 mm 5 mps 698 mmHg 96%

26 September, Saturday

Time Temperature Precipitation Wind Pressure Humidity
00:00 +1°C° 0.1 mm 5 mps 697 mmHg 97%
01:00 0°C° 0.1 mm 5 mps 697 mmHg 97%
02:00 0°C° 0.1 mm 5 mps 697 mmHg 97%
03:00 0°C° 0.1 mm 5 mps 697 mmHg 96%
04:00 0°C° 0.1 mm 5 mps 696 mmHg 95%
05:00 +1°C° 0 mm 5 mps 697 mmHg 94%
06:00 +1°C° 0 mm 6 mps 698 mmHg 94%
07:00 +2°C° 0 mm 6 mps 699 mmHg 93%
08:00 +4°C° 0 mm 6 mps 700 mmHg 84%
09:00 +5°C° 0 mm 6 mps 700 mmHg 75%
10:00 +8°C° 0 mm 6 mps 701 mmHg 67%
11:00 +8°C° 0 mm 6 mps 702 mmHg 66%
12:00 +8°C° 0 mm 6 mps 702 mmHg 66%
13:00 +8°C° 0 mm 6 mps 703 mmHg 65%
14:00 +8°C° 0.1 mm 6 mps 703 mmHg 66%
15:00 +8°C° 0.1 mm 5 mps 703 mmHg 67%
16:00 +8°C° 0.1 mm 5 mps 704 mmHg 68%
17:00 +7°C° 0.1 mm 4 mps 705 mmHg 76%
18:00 +5°C° 0.1 mm 3 mps 705 mmHg 85%
19:00 +4°C° 0.1 mm 2 mps 706 mmHg 93%
20:00 +4°C° 0 mm 1 mps 707 mmHg 93%
21:00 +3°C° 0 mm 1 mps 708 mmHg 94%
22:00 +2°C° 0 mm 1 mps 708 mmHg 94%
23:00 +2°C° 0 mm 1 mps 708 mmHg 94%
Show more